2018-099S (43774 NORAD) Tracking and Keplerian Element Data

This shows tracking and keplerian element data for the satellite.

Feedback or suggestion? Click here.




ElementValue
Catalog43774
Name2018-099S
Epoch Orbit100
Epoch Day344.51251993
Epoch Year2018
RAAN53.5986
Inclination97.7711
Eccentricity0.0011881
Argument of Perigee234.8781
Mean Anonmoly125.1326
Mean Motion14.94764705
Decay Rate4.2E-07
L11 43774U 18099S 18344.51251993 .00000042 00000-0 92112-5 0 9993
L22 43774 97.7711 53.5986 0011881 234.8781 125.1326 14.94764705 1005

Live tracking and technical data element details for 2018-099S (NORAD 43774). 2018-099S can be tracked NOW for your location showing map with azimuth and elevation plus other details from your city location.

Track the satellite on the map from your city or location and see movement details for azimuth, elevation, latitude, longitude, range, height, and movement on the map or in text.







IsCatalogInMostPopularTable: catalog: 43774, numindb: 1
Update: records affected: 1



GetName: 43774 2018-099S

Hit Count: updated at: Tue, 11 Dec 2018 02:17:23 GMT